• Join FlightAware (Why Join?)
  • Login
  • US Flag 
09:45AM EST


 

Airport Tracker/Info


-or-


 

Live Flight TrackerFlight Track Log ✈ UAL4625 ✈ 26-Apr-2013 ✈ KEWR - KCHS

Flight Track Log - Related Links

Times and Time Zones

All times are in EDT time to prevent confusion due to time zone crossing. See the UAL4625 flight status page for this flight to view local times or setup timezone preferences in your user account.

Time Position Orientation Groundspeed Altitude Reporting Facility
EDT Latitude Longitude Course Direction KTS MPH feet Rate Location/Type
09:08AM 40.7500 -74.1000 180° South 218 251 2,600  Level New York TRACON
09:10AM 40.7522 -74.1733 272° West 272 313 6,200 2,100 Climbing New York Center
09:11AM 40.2993 -74.1502 194° South  Level FlightAware Approximate
09:11AM 40.7000 -74.2167 212° Southwest 259 298 9,000  Level New York TRACON
09:12AM 40.1967 -74.1844 194° South  Level FlightAware Approximate
09:13AM 40.0947 -74.2167 180° South  Level FlightAware Approximate
09:13AM 40.5922 -74.3650 226° Southwest 260 299 14,500  Level New York Center
09:14AM 40.5331 -74.4000 204° Southwest 265 305 16,000 720 Climbing New York Center
09:15AM 40.5006 -74.3000 113° Southeast 233 268 16,000 420 Level New York Center
09:16AM 40.4806 -74.2008 105° East 261 300 16,900 480 Climbing New York Center
09:17AM 40.3911 -74.1908 175° South 251 289 17,000 660 Climbing New York Center
09:19AM 40.2181 -74.2169 187° South 357 411 18,900 1,140 Climbing Washington Center
09:20AM 40.1100 -74.2353 187° South 379 436 20,300 1,680 Climbing Washington Center
09:21AM 40.0081 -74.2589 190° South 385 443 22,300 1,980 Climbing Washington Center
09:22AM 39.9256 -74.3281 213° Southwest 366 421 24,300 1,620 Climbing Washington Center
09:23AM 39.8389 -74.4106 216° Southwest 360 414 25,600 1,140 Climbing Washington Center
09:24AM 39.7647 -74.5011 223° Southwest 365 420 26,600 960 Climbing Washington Center
09:25AM 39.6906 -74.5964 225° Southwest 370 426 27,600 1,140 Climbing Washington Center
09:26AM 39.6164 -74.6972 226° Southwest 376 433 28,900 1,860 Climbing Washington Center
09:27AM 39.5503 -74.7842 225° Southwest 376 433 31,300 1,860 Climbing Washington Center
09:28AM 39.4822 -74.8736 225° Southwest 364 419 32,600 1,080 Climbing Washington Center
09:29AM 39.4158 -74.9603 225° Southwest 351 404 33,500 900 Climbing Washington Center
09:30AM 39.3456 -75.0522 225° Southwest 351 404 34,500 900 Climbing Washington Center
09:31AM 39.2647 -75.1278 216° Southwest 358 412 35,400 720 Climbing Washington Center
09:32AM 39.1647 -75.1714 199° South 364 419 36,000 240 Climbing Washington Center
09:33AM 39.0586 -75.2147 198° South 387 445 36,000  Level Washington Center
09:34AM 38.9483 -75.2606 198° South 404 465 36,000  Level Washington Center
09:35AM 38.8336 -75.3064 197° South 425 489 36,000  Level Washington Center
09:36AM 38.7150 -75.3575 199° South 439 505 36,000  Level Washington Center
09:37AM 38.5964 -75.4111 199° South 449 517 36,000  Level Washington Center
09:38AM 38.4753 -75.4644 199° South 455 524 36,000  Level Washington Center
09:39AM 38.3567 -75.5097 197° South 455 524 36,000  Level Washington Center
09:40AM 38.2669 -75.5839 213° Southwest 444 511 36,000  Level Washington Center
09:41AM 38.1711 -75.6736 216° Southwest 438 504 36,000  Level Washington Center
09:42AM 38.0708 -75.7658 216° Southwest 438 504 36,000  Level Washington Center
09:43AM 37.9747 -75.8553 216° Southwest 443 510 36,000  Level Washington Center
09:44AM 37.8786 -75.9494 218° Southwest 443 510 36,000  Level Washington Center
09:45AM 37.7739 -76.0517 218° Southwest 438 504 36,000  Level Washington Center
09:46AM 37.6756 -76.1453 217° Southwest 438 504 36,000  Level Washington Center
09:47AM 37.5856 -76.2181 213° Southwest 438 504 36,000  Level Washington Center
09:48AM 37.4869 -76.3089 216° Southwest 438 504 36,000  Level Washington Center
09:49AM 37.3906 -76.3969 216° Southwest 438 504 36,000  Level Washington Center
09:50AM 37.2917 -76.4900 217° Southwest 438 504 36,000  Level Washington Center
09:51AM 37.1931 -76.5775 215° Southwest 438 504 36,000  Level Washington Center
09:52AM 37.0942 -76.6697 217° Southwest 438 504 36,000  Level Washington Center
09:53AM 36.9975 -76.7569 216° Southwest 438 504 36,000  Level Washington Center
09:54AM 36.8986 -76.8464 216° Southwest 438 504 36,000  Level Washington Center
09:55AM 36.7994 -76.9331 215° Southwest 438 504 36,000  Level Washington Center
09:56AM 36.7025 -77.0219 216° Southwest 438 504 36,000  Level Washington Center
09:57AM 36.6075 -77.1133 218° Southwest 438 504 36,000  Level Washington Center
09:58AM 36.5125 -77.2044 218° Southwest 438 504 36,000  Level Washington Center
09:59AM 36.4153 -77.2956 217° Southwest 438 504 36,000  Level Washington Center
10:00AM 36.3178 -77.3861 217° Southwest 443 510 36,000  Level Washington Center
10:01AM 36.2161 -77.4842 218° Southwest 435 501 36,000  Level Washington Center
10:02AM 36.1189 -77.5744 217° Southwest 435 501 36,000  Level Washington Center
10:03AM 36.0192 -77.6644 216° Southwest 440 506 36,000  Level Washington Center
10:04AM 35.9217 -77.7492 215° Southwest 440 506 36,000  Level Washington Center
10:05AM 35.8181 -77.8308 213° Southwest 445 512 36,000  Level Washington Center
10:06AM 35.7269 -77.9025 213° Southwest 445 512 36,000 -300 Level Washington Center
10:07AM 35.6231 -77.9811 212° Southwest 445 512 35,500 -1,020 Descending Washington Center
10:08AM 35.5172 -78.0622 212° Southwest 445 512 34,000 -1,560 Descending Washington Center
10:09AM 35.4175 -78.1433 214° Southwest 445 512 32,500 -1,560 Descending Washington Center
10:10AM 35.3156 -78.2214 212° Southwest 445 512 30,900 -1,620 Descending Washington Center
10:11AM 35.2158 -78.2969 212° Southwest 440 506 29,400 -1,440 Descending Washington Center
10:12AM 35.1158 -78.3750 213° Southwest 440 506 28,100 -720 Descending Washington Center
10:13AM 35.0117 -78.4550 212° Southwest 440 506 28,000 -60 Descending Washington Center
10:14AM 34.9097 -78.5350 213° Southwest 440 506 28,000  Level Washington Center
10:15AM 34.7969 -78.6194 212° Southwest 445 512 28,000  Level Washington Center
10:18AM 34.5567 -78.8011 212° Southwest 440 506 28,000  Level Jacksonville Center
10:19AM 34.4531 -78.8864 214° Southwest 445 512 28,000  Level Jacksonville Center
10:20AM 34.3489 -78.9642 212° Southwest 445 512 28,000 -360 Level Jacksonville Center
10:21AM 34.2406 -79.0344 208° Southwest 445 512 27,300 -1,140 Descending Jacksonville Center
10:22AM 34.1192 -79.0900 201° Southwest 452 520 25,800 -1,500 Descending Jacksonville Center
10:23AM 33.9997 -79.1453 201° Southwest 465 535 24,300 -1,500 Descending Jacksonville Center
10:24AM 33.8825 -79.1978 200° South 465 535 22,800 -1,500 Descending Jacksonville Center
10:25AM 33.7714 -79.2525 202° Southwest 454 522 21,300 -1,620 Descending Jacksonville Center
10:26AM 33.6631 -79.3292 211° Southwest 435 501 19,600 -1,620 Descending Jacksonville Center
10:27AM 33.5711 -79.4003 213° Southwest 412 474 18,100 -2,100 Descending Jacksonville Center
10:28AM 33.4831 -79.4636 211° Southwest 394 453 15,400 -2,940 Descending Jacksonville Center
10:29AM 33.3972 -79.5314 213° Southwest 379 436 12,300 -1,920 Descending Jacksonville Center
10:31AM 33.2397 -79.6492 212° Southwest 349 402 9,800 -1,200 Descending Jacksonville Center
10:32AM 33.1764 -79.7011 214° Southwest 314 361 8,700 -1,080 Descending Jacksonville Center
10:33AM 33.1067 -79.7556 213° Southwest 302 348 7,700 -1,080 Descending Jacksonville Center
10:34AM 33.0389 -79.8050 211° Southwest 297 342 6,600 -1,080 Descending Jacksonville Center
10:35AM 32.9736 -79.8594 215° Southwest 297 342 5,600 -1,080 Descending Jacksonville Center
10:36AM 32.9100 -79.9086 213° Southwest 297 342 4,500 -1,140 Descending Jacksonville Center
10:37AM 32.8528 -79.9622 218° Southwest 285 328 3,400 -1,140 Descending Jacksonville Center